This demonstration page uses our WeatherBlox Daily Observations layout. Learn more.

Left ArrowRight Arrow

36.19886, -115.1175

Hourly Observations for December 5, 2022

Temp ( °F °C ) Dew Point ( °F °C ) Humidity (%) Winds ( mph kmh ) Pressure ( in mb ) Visibility ( mi km ) Precip ( " mm )
12:53 am 00:53 Clear 57 13.9 42 5.6 57 57 S 10 17 29.96 1014 10 16 0.00 0.00
1:53 am 01:53 Clear 56 13.3 41 5 57 57 S 10 17 29.96 1014 10 16 0.00 0.00
2:53 am 02:53 Clear 55 12.8 40 4.4 57 57 SSE 9 15 29.94 1014 10 16 0.00 0.00
3:53 am 03:53 Clear 52 11.1 41 5 66 66 NE 6 9 29.94 1014 10 16 0.00 0.00
4:53 am 04:53 Clear 50 10 43 6.1 77 77 E 8 13 29.95 1014 10 16 0.00 0.00
5:53 am 05:53 Clear 50 10 45 7.2 83 83 NNW 6 9 29.97 1015 10 16 0.00 0.00
6:53 am 06:53 Sunny 51 10.6 46 7.8 83 83 N 8 13 29.98 1015 10 16 0.00 0.00
7:53 am 07:53 Sunny 51 10.6 43 6.1 74 74 NNW 7 11 29.99 1016 10 16 0.00 0.00
8:53 am 08:53 Sunny 53 11.7 44 6.7 71 71 NNW 3 6 29.99 1016 10 16 0.00 0.00
9:53 am 09:53 Sunny 54 12.2 44 6.7 69 69 SE 5 7 29.99 1016 10 16 0.00 0.00
10:53 am 10:53 Sunny 56 13.3 44 6.7 64 64 VRB 3 6 29.96 1015 10 16 0.00 0.00
11:53 am 11:53 Sunny 60 15.6 38 3.3 44 44 SSE 7 11 29.93 1014 10 16 0.00 0.00
12:53 pm 12:53 Sunny 63 17.2 36 2.2 36 36 SSE 14 22 29.89 1012 10 16 0.00 0.00
1:53 pm 13:53 Sunny 62 16.7 33 0.6 34 34 SSE 9 15 29.87 1011 10 16 0.00 0.00
2:53 pm 14:53 Sunny 62 16.7 32 0 32 32 SSE 12 19 29.87 1011 10 16 0.00 0.00
3:53 pm 15:53 Sunny 62 16.7 32 0 32 32 SSW 10 17 29.88 1012 10 16 0.00 0.00
4:53 pm 16:53 Clear 59 15 33 0.6 37 37 S 9 15 29.88 1012 10 16 0.00 0.00
5:53 pm 17:53 Clear 56 13.3 33 0.6 42 42 S 6 9 29.89 1012 10 16 0.00 0.00
6:53 pm 18:53 Clear 56 13.3 36 2.2 47 47 SW 7 11 29.89 1012 10 16 0.00 0.00
7:53 pm 19:53 Clear 53 11.7 34 1.1 48 48 WSW 7 11 29.91 1013 10 16 0.00 0.00
8:53 pm 20:53 Clear 50 10 34 1.1 54 54 WNW 8 13 29.92 1013 10 16 0.00 0.00
9:53 pm 21:53 Clear 50 10 33 0.6 52 52 NNW 6 9 29.94 1014 10 16 0.00 0.00
10:53 pm 22:53 Clear 49 9.4 33 0.6 54 54 Calm 29.95 1014 10 16 0.00 0.00
11:53 pm 23:53 Clear 46 7.8 32 0 58 58 WNW 6 9 29.95 1014 10 16 0.00 0.00

Powered by AerisWeather